Weather History for Lakeview AWS, OR

Change the Weather History Date:

Friday, December 7, 2012

  Actual Average Record
Temperature  
Mean Temperature 29 °F -  
Max Temperature 39 °F 39 °F 58 °F (1940)
Min Temperature 19 °F 23 °F -20 °F (2013)
Degree Days  
Heating Degree Days 36    
Moisture  
Dew Point 24 °F    
Average Humidity 77    
Maximum Humidity 100    
Minimum Humidity 48    
Precipitation  
Precipitation 0.00 in - - ()
Sea Level Pressure  
Sea Level Pressure 30.12 in    
Wind  
Wind Speed 5 mph (SSW)    
Max Wind Speed 15 mph    
Max Gust Speed 20 mph    
Visibility 10 miles    
Events      
Averages and records for this station are not official NWS values.
T = Trace of Precipitation, MM = Missing Value Source: NWS Daily Summary

Daily Weather History Graph

Daily Weather History Graph

Search for Another Location

Airport:

Trip Planner

Search our weather history database for the weather conditions in past years. The results will help you decide how hot, cold, wet, or windy it might be!

Date:

Astronomy

Dec. 07, 2012 Rise Set
Actual Time 7:17 AM PST 4:29 PM PST
Civil Twilight 6:45 AM PST 5:01 PM PST
Nautical Twilight 6:10 AM PST 5:36 PM PST
Astronomical Twilight 5:36 AM PST 6:10 PM PST
Moon 12:35 AM PST (12/7) 12:34 PM PST (12/7)
Length of Visible Light 10h 15m
Length of Day
9h 12m
Last Quarter, 37% of the Moon is Illuminated
Dec 7
Last Quarter
Dec 13
New
Dec 19
First Quarter
Dec 28
Full
Jan 4
Last Quarter

Hourly Weather History & Observations

Time (PST) Temp. Windchill Dew Point Humidity Pressure Visibility Wind Dir Wind Speed Gust Speed Precip Events Conditions
12:15 AM 28.4 °F 21.2 °F 26.6 °F 93% 30.18 in 10.0 mi South 6.9 mph - N/A   Clear
12:35 AM 28.4 °F 22.2 °F 26.6 °F 93% 30.18 in 10.0 mi SSE 5.8 mph - N/A   Clear
12:55 AM 28.4 °F 21.2 °F 26.6 °F 93% 30.17 in 10.0 mi SSE 6.9 mph - N/A   Clear
1:15 AM 28.4 °F 24.6 °F 24.8 °F 86% 30.17 in 10.0 mi South 3.5 mph - N/A   Clear
1:35 AM 24.8 °F 19.1 °F 21.2 °F 86% 30.18 in 10.0 mi NW 4.6 mph - N/A   Clear
1:55 AM 24.8 °F - 23.0 °F 93% 30.17 in 10.0 mi Calm Calm - N/A   Clear
2:15 AM 24.8 °F 20.5 °F 23.0 °F 93% 30.17 in 10.0 mi NNE 3.5 mph - N/A   Clear
2:35 AM 23.0 °F 18.4 °F 21.2 °F 93% 30.17 in 10.0 mi East 3.5 mph - N/A   Clear
2:55 AM 24.8 °F - 23.0 °F 93% 30.17 in 10.0 mi Calm Calm - N/A   Clear
3:15 AM 23.0 °F - 19.4 °F 86% 30.17 in 10.0 mi Calm Calm - N/A   Clear
3:35 AM 23.0 °F - 19.4 °F 86% 30.16 in 10.0 mi Calm Calm - N/A   Clear
3:55 AM 24.8 °F 20.5 °F 21.2 °F 86% 30.15 in 10.0 mi SSE 3.5 mph - N/A   Clear
4:15 AM 26.6 °F 21.2 °F 26.6 °F 100% 30.15 in 10.0 mi South 4.6 mph - N/A   Clear
4:35 AM 26.6 °F 20.0 °F 24.8 °F 93% 30.15 in 10.0 mi SSW 5.8 mph - N/A   Clear
4:55 AM 26.6 °F 21.2 °F 24.8 °F 93% 30.15 in 10.0 mi South 4.6 mph - N/A   Clear
5:15 AM 26.6 °F 20.0 °F 26.6 °F 100% 30.15 in 10.0 mi South 5.8 mph - N/A   Clear
5:35 AM 26.6 °F 19.1 °F 24.8 °F 93% 30.14 in 10.0 mi SSE 6.9 mph - N/A   Clear
5:55 AM 26.6 °F 19.1 °F 24.8 °F 93% 30.14 in 10.0 mi South 6.9 mph - N/A   Clear
6:15 AM 26.6 °F 21.2 °F 24.8 °F 93% 30.15 in 10.0 mi South 4.6 mph - N/A   Clear
6:35 AM 23.0 °F - 21.2 °F 93% 30.15 in 10.0 mi Calm Calm - N/A   Clear
6:55 AM 21.2 °F 16.4 °F 19.4 °F 93% 30.15 in 10.0 mi South 3.5 mph - N/A   Clear
7:15 AM 19.4 °F - 19.4 °F 100% 30.15 in 10.0 mi Calm Calm - N/A   Clear
7:35 AM 19.4 °F 12.8 °F 17.6 °F 93% 30.15 in 10.0 mi NNW 4.6 mph - N/A   Clear
7:55 AM 19.4 °F - 17.6 °F 93% 30.15 in 10.0 mi Calm Calm - N/A   Clear
8:15 AM 21.2 °F 16.4 °F 21.2 °F 100% 30.15 in 10.0 mi WNW 3.5 mph - N/A   Clear
8:35 AM 26.6 °F - 26.6 °F 100% 30.15 in 10.0 mi Calm Calm - N/A   Clear
8:55 AM 28.4 °F - 28.4 °F 100% 30.15 in 10.0 mi Calm Calm - N/A   Clear
9:15 AM 30.2 °F - 28.4 °F 93% 30.15 in 10.0 mi Calm Calm - N/A   Clear
9:35 AM 30.2 °F - 28.4 °F 93% 30.15 in 10.0 mi Calm Calm - N/A   Clear
9:55 AM 32.0 °F 28.7 °F 28.4 °F 87% 30.15 in 10.0 mi South 3.5 mph - N/A   Clear
10:15 AM 35.6 °F - 28.4 °F 75% 30.16 in 10.0 mi Calm Calm - N/A   Clear
10:35 AM 33.8 °F 30.8 °F 26.6 °F 75% 30.15 in 10.0 mi SE 3.5 mph - N/A   Clear
10:55 AM 33.8 °F 29.6 °F 28.4 °F 81% 30.15 in 10.0 mi SE 4.6 mph - N/A   Clear
11:15 AM 33.8 °F 29.6 °F 28.4 °F 81% 30.13 in 10.0 mi ESE 4.6 mph - N/A   Clear
11:35 AM 35.6 °F 31.7 °F 28.4 °F 75% 30.13 in 10.0 mi ESE 4.6 mph - N/A   Clear
11:55 AM 37.4 °F 32.8 °F 26.6 °F 65% 30.13 in 10.0 mi South 5.8 mph - N/A   Clear
12:15 PM 37.4 °F 32.1 °F 23.0 °F 56% 30.12 in 10.0 mi South 6.9 mph - N/A   Clear
12:35 PM 39.2 °F 33.6 °F 24.8 °F 56% 30.11 in 10.0 mi South 8.1 mph - N/A   Clear
12:55 PM 39.2 °F 33.0 °F 21.2 °F 49% 30.11 in 10.0 mi South 9.2 mph - N/A   Clear
1:15 PM 39.2 °F 33.6 °F 23.0 °F 52% 30.10 in 10.0 mi South 8.1 mph - N/A   Clear
1:35 PM 39.2 °F 33.6 °F 24.8 °F 56% 30.09 in 10.0 mi South 8.1 mph - N/A   Clear
1:55 PM 39.2 °F 33.6 °F 26.6 °F 61% 30.08 in 10.0 mi SSE 8.1 mph - N/A   Clear
2:15 PM 39.2 °F 34.2 °F 26.6 °F 61% 30.07 in 10.0 mi South 6.9 mph - N/A   Clear
2:35 PM 39.2 °F 35.9 °F 26.6 °F 61% 30.07 in 10.0 mi SE 4.6 mph - N/A   Clear
2:55 PM 39.2 °F 35.0 °F 26.6 °F 61% 30.08 in 10.0 mi ESE 5.8 mph - N/A   Scattered Clouds
3:15 PM 39.2 °F 37.0 °F 26.6 °F 61% 30.07 in 10.0 mi South 3.5 mph - N/A   Mostly Cloudy
3:35 PM 39.2 °F 37.0 °F 24.8 °F 56% 30.07 in 10.0 mi SSW 3.5 mph - N/A   Scattered Clouds
3:55 PM 39.2 °F 37.0 °F 21.2 °F 49% 30.07 in 10.0 mi SW 3.5 mph - N/A   Clear
4:15 PM 37.4 °F - 19.4 °F 48% 30.08 in 10.0 mi Calm Calm - N/A   Clear
4:35 PM 35.6 °F 29.9 °F 21.2 °F 56% 30.09 in 10.0 mi WNW 6.9 mph - N/A   Clear
5:15 PM 33.8 °F 26.4 °F 17.6 °F 52% 30.08 in 10.0 mi West 9.2 mph - N/A   Clear
5:35 PM 33.8 °F 27.0 °F 17.6 °F 52% 30.09 in 10.0 mi WSW 8.1 mph - N/A   Clear
5:55 PM 33.8 °F 25.8 °F 17.6 °F 52% 30.09 in 10.0 mi WSW 10.4 mph - N/A   Clear
6:15 PM 33.8 °F 23.9 °F 19.4 °F 56% 30.08 in 10.0 mi WSW 15.0 mph - N/A   Clear
6:35 PM 33.8 °F 24.8 °F 19.4 °F 56% 30.08 in 10.0 mi WSW 12.7 mph - N/A   Clear
6:55 PM 33.8 °F 25.3 °F 19.4 °F 56% 30.07 in 10.0 mi WSW 11.5 mph - N/A   Clear
7:15 PM 33.8 °F 24.3 °F 19.4 °F 56% 30.08 in 10.0 mi WSW 13.8 mph - N/A   Clear
7:55 PM 33.8 °F 25.8 °F 21.2 °F 60% 30.09 in 10.0 mi West 10.4 mph - N/A   Clear
8:35 PM 32.0 °F 24.8 °F 21.2 °F 64% 30.09 in 10.0 mi West 8.1 mph - N/A   Clear
8:55 PM 28.4 °F - 21.2 °F 74% 30.10 in 10.0 mi Calm Calm - N/A   Clear
9:15 PM 28.4 °F 22.2 °F 23.0 °F 80% 30.10 in 10.0 mi South 5.8 mph - N/A   Clear
9:35 PM 30.2 °F 20.2 °F 24.8 °F 80% 30.10 in 10.0 mi SSW 12.7 mph 17.3 mph N/A   Clear
9:55 PM 30.2 °F 20.2 °F 24.8 °F 80% 30.10 in 10.0 mi SW 12.7 mph - N/A   Clear
10:15 PM 30.2 °F 20.2 °F 24.8 °F 80% 30.10 in 10.0 mi SW 12.7 mph - N/A   Clear
10:35 PM 30.2 °F 24.3 °F 23.0 °F 75% 30.11 in 10.0 mi South 5.8 mph - N/A   Clear
10:55 PM 30.2 °F 21.3 °F 24.8 °F 80% 30.12 in 10.0 mi SW 10.4 mph - N/A   Clear
11:15 PM 30.2 °F 21.9 °F 24.8 °F 80% 30.12 in 10.0 mi SW 9.2 mph 17.3 mph N/A   Clear
11:35 PM 30.2 °F 21.9 °F 23.0 °F 75% 30.12 in 10.0 mi SW 9.2 mph 19.6 mph N/A   Clear
11:55 PM 30.2 °F 22.6 °F 24.8 °F 80% 30.11 in 10.0 mi South 8.1 mph - N/A   Clear